Вернуться в каталог

STARLINK-36725

АктивенСвязьVLEO
NORAD 68285·PAYLOAD·🇺🇸 United States

Запущен Mar 19, 2026 с Vandenberg Space Force Base

Loading…

Ближайшие Пролёты (ближайшие 24 часа)

TLE

СвежийSource: CelesTrak SupGP

Эпоха: Sep 14, 2026, 22:41 UTC

1 68285C 26055Z   26257.94562500 -.00048635  00000+0 -14368-2 0  2578
2 68285  53.1562 157.7009 0001298  86.7140 213.9686 15.34418220    14

Отслеживайте STARLINK-36725 в реальном времени с AllMySat

Download on the App Store